Regional Weather Roundup
Issued by NWS

Home | Current Version | Previous Version | Text Only | Print | Product List | Glossary Off
Versions: 1 2 3 4 5 6 7 8 9 10 11 12 13 14 15 16 17 18 19 20 21 22 23 24 25 26 27 28 29 30 31 32 33 34 35 36 37 38 39 40 41 42 43 44 45 46 47 48 49 50

000
ASUS43 KLOT 211400
RWRIL

ILLINOIS REGIONAL WEATHER ROUNDUP
NATIONAL WEATHER SERVICE CHICAGO/ROMEOVILLE IL
800 AM CST FRI NOV 21 2014

NOTE: "FAIR" INDICATES FEW OR NO CLOUDS BELOW 12,000 FEET WITH NO
SIGNIFICANT WEATHER AND/OR OBSTRUCTIONS TO VISIBILITY.

* THESE STATIONS ARE NOT UNDER NWS QUALITY CONTROL. THEY ALSO MAY NOT
  REPORT WEATHER SUCH AS PRECIPITATION OR FOG.

ILZ001-002-007-009-015-016-024-211500-
NORTHWEST ILLINOIS

CITY           SKY/WX    TMP DP  RH WIND       PRES   REMARKS
MOLINE         MOCLDY    13   6  74 E6        30.41R WCI   4
STERLING*      CLEAR     10   5  79 E3        30.42R
$$

ILZ003-004-008-010-011-017-018-211500-
NORTH CENTRAL ILLINOIS

CITY           SKY/WX    TMP DP  RH WIND       PRES   REMARKS
ROCKFORD       PTCLDY     9   4  80 CALM      30.44R
FREEPORT*      PTCLDY     7   2  80 CALM      30.42R
$$

ILZ005-006-012>014-019>023-211500-
NORTHEAST ILLINOIS

CITY           SKY/WX    TMP DP  RH WIND       PRES   REMARKS
CHICAGO-OHARE  MOSUNNY   13   6  74 W3        30.44R
CHICAGO-MIDWAY MOSUNNY   17   8  67 CALM      30.46R
AURORA         MOSUNNY    9   3  77 CALM      30.45R
LANSING*       MOSUNNY   13   8  80 CALM      30.46R
WAUKEGAN       PTSUNNY   12   5  73 CALM      30.42R
DUPAGE AIRPORT MOSUNNY   11   6  81 CALM      30.43R
WHEELING       PTSUNNY   13   5  70 SW3       30.46R
NORTHERLY ISL    N/A     19   4  51 SW7         N/A  WCI  10
$$

LMZ740>746-211500-
SOUTHERN LAKE MICHIGAN

STATION/POSITION SKY/WX   TEMP    WIND        PRES    VSBY  WAVE
                          AIR SEA DIR/SP/G                  HT/PER
                          (F)     (DEG/KT/KT) (MB)    (MI)  (FT/S)
SOUTHERN BUOY              24 42  290/  4/  8 1030.6R         3/ 6
WAUKEGAN HARBOR            13     280/  6/  7   N/A
HARRISON CRIB              18     290/  6/  7   N/A
BURNHAM HARBOR             19     250/  5/  7   N/A
CALUMET HARBOR             16     210/  4/  5 1029.7R
MICHIGAN CITY              18     150/  5/  7   N/A
$$

ILZ025>027-034>036-040-047-049-050-058-095>099-211500-
WEST-CENTRAL ILLINOIS

CITY           SKY/WX    TMP DP  RH WIND       PRES   REMARKS
QUINCY         PTCLDY    19  10  68 SE14      30.39R WCI   6
MACOMB*        PTCLDY    15  10  81 SE8       30.43S WCI   4
$$

ILZ028>032-037-038-041>044-048-051>054-059>061-211500-
CENTRAL ILLINOIS

CITY           SKY/WX    TMP DP  RH WIND       PRES   REMARKS
DECATUR        PTSUNNY   17  10  74 E9        30.45R WCI   6
PEORIA         MOSUNNY   18   6  59 SE6       30.44R WCI  10
LINCOLN*       MOSUNNY   16   9  76 SE5       30.47R WCI   8
SPRINGFIELD    MOSUNNY   19  10  68 SE12      30.44R WCI   7
TAYLORVILLE    NOT AVBL
$$

ILZ033-039-045-046-055>057-062-063-211500-
EAST-CENTRAL ILLINOIS

CITY           SKY/WX    TMP DP  RH WIND       PRES   REMARKS
CHAMPAIGN      SUNNY     15   8  73 SE9       30.47R WCI   3
MATTOON        MOSUNNY   18   9  68 SE8       30.45R WCI   8
$$

ILZ079-100>102-211500-
SOUTHWEST ILLINOIS

CITY           SKY/WX    TMP DP  RH WIND       PRES   REMARKS
ALTON          SUNNY    N/A N/A N/A E12       30.44R
BELLEVILLE     SUNNY     24  17  75 E8        30.44R WCI  14
CAHOKIA*       SUNNY     26  16  65 SE10      30.44R WCI  16
$$

ILZ064>066-069>071-074>076-080>082-084>086-088>090-092>094-211500-
SOUTH-CENTRAL ILLINOIS

CITY           SKY/WX    TMP DP  RH WIND       PRES   REMARKS
CARBONDALE     SUNNY     25  18  74 E5        30.44R WCI  19
MARION         SUNNY     28  18  64 E12       30.44S WCI  18
MT. VERNON     SUNNY     25  16  68 E7        30.46R WCI  17
$$

ILZ067-068-072-073-078-083-087-091-211500-
SOUTHEAST ILLINOIS

CITY           SKY/WX    TMP DP  RH WIND       PRES   REMARKS
LAWRENCEVILLE  SUNNY     22  13  68 E5        30.49R WCI  16
$$

ABBREVIATIONS USED IN REMARKS
   TC - TEMPERATURE IN CELSIUS
  WCI - WIND CHILL INDEX
   HX - HEAT INDEX
  VSB - VISIBILITY
$$



USA.gov is the U.S. government's official web portal to all federal, state and local government web resources and services.